Regional Weather Roundup
Issued by NWS

Home | Current Version | Previous Version | Text Only | Print | Product List | Glossary On
Versions: 1 2 3 4 5 6 7 8 9 10 11 12 13 14 15 16 17 18 19 20 21 22 23 24 25 26 27 28 29 30 31 32 33 34 35 36 37 38 39 40 41 42 43 44 45 46 47 48 49 50
000
ASUS42 KTAE 310616
RWRTAE
RWRTAE
North Florida/South Alabama/Southwest Georgia Weather Roundup
National Weather Service Tallahassee Florida
200 AM EDT SAT JUL 31 2021

Note: "fair" indicates few or no clouds below 12,000 feet with no
significant weather and/or obstructions to visibility.

!FLZ017-115-028-034-025-310700
...North Florida...

CITY           SKY/WX    TMP DP  RH WIND       PRES   REMARKS
TALL INTL ARPT PTCLDY    80  77  90 S3        30.01F
FSU LOVE BLDG    N/A     81  77  89 S6          N/A
APALACHICOLA   CLEAR     81  80  97 CALM      30.01F HX  91
PERRY          NOT AVBL
CROSS CITY     CLEAR     77  76  97 CALM      30.03F
JACKSONVILLE   PTCLDY    78  76  93 SW5       30.01S
$$

!FLZ112-006-005-002-011-310700
...Florida Panhandle...

CITY           SKY/WX    TMP DP  RH WIND       PRES   REMARKS
MARIANNA       CLEAR     81  77  88 CALM      30.00S
BONIFAY        FAIR      79  77  94 CALM      30.01F FOG
PANAMA CITY NW FAIR      82  81  96 CALM      30.00F HX  95
TYNDALL AFB    MOCLDY    86  81  84 NW6       29.99  THUNDER HX 102
TYND DRONE APT TSTM      86  82  89 N8        29.98  HX 105
DE FUNIAK SPR  FAIR      78  76  93 CALM      30.03S
EGLIN AFB      CLEAR     81  78  91 CALM      30.00F HX  90
DESTIN         CLEAR     86  80  82 NW3       30.00F HX 101
HURLBURT       CLEAR     83  78  86 CALM      30.00F HX  93
CRESTVIEW      CLEAR     79  78  97 CALM      30.02F FOG
PENSACOLA      CLEAR     83  79  88 W3        30.01F HX  94
$$

!ALZ063-066-310700
...South Alabama...

CITY           SKY/WX    TMP DP  RH WIND       PRES   REMARKS
DOTHAN         CLEAR     79  77  94 NW3       30.04F
OZARK CAIRNS   CLEAR     77  76  99 NW5       30.00F
FT RUCKER HELI CLEAR     76  75  96 CALM      30.01F
RUCKER HELI 3  FAIR      80  75  85 CALM      30.00F
RUCKER HELI 2  FAIR      77  76  99 NW3       29.99F
FLORALA APT    CLEAR     78  74  87 CALM      30.03F
ANDALUSIA      CLEAR     80  75  84 CALM      30.02S HAZE
TROY           CLEAR     79  74  84 CALM      30.02F HAZE
EUFALA         FAIR      78  75  90 CALM      30.00F FOG
MOBILE         PTCLDY    79  79 100 W5        30.03F
$$

!GAZ120>161-310700
...Southwest and South Central Georgia...

CITY           SKY/WX    TMP DP  RH WIND       PRES   REMARKS
THOMASVILLE    FAIR      77  77 100 SW3       30.03S
BAINBRIDGE     PTCLDY    79  78  96 SW5       30.01S
MOODY AFB      PTCLDY    79  76  89 SW5       30.00F
VALDOSTA       PTCLDY    79  77  94 SW3       30.02F
MOULTRIE       PTCLDY    79  75  89 CALM      30.02F
BLAKELY        CLEAR     77  73  88 CALM      30.01S FOG
ALBANY         CLEAR     81  77  88 CALM      30.01F
TIFTON         FAIR      81  77  90 SW5       30.01S
FITZGERALD     FAIR      80  77  90 CALM      30.01F
CORDELE        FAIR      78  75  90 CALM      30.01S
AMERICUS       NOT AVBL
HOMERVILLE     FAIR      80  76  90 S3        30.02F
$$

!GMZ750-755-770-775-310700
...Coastal and Buoy Obs...

STATION/POSITION TIME  TEMP    WIND        PRES    VSBY  WAVE
                       AIR SEA DIR/SP/G                  HT/PER
                 (UTC) (F)     (DEG/KT/KT) (MB)    (MI)  (FT/S)
KEATON BEACH     0600   84     230/ 10/ 12 1016.7F
CEDAR KEY        0600   84     240/  9/ 13 1017.3F
C TOWER          0600   84     240/  5/  6 1016.7F
APALACHICOLA BUO 0600   83     230/ 10/ 12 1017.5
PANAMA CITY BUOY 0600   85     270/  8/  8 1017.3
MOBILE BUOY      0600   85     270/  8/ 10 1017.1
ORANGE BCH AL BU 0600   88     290/ 12/ 14   N/A
$$



USA.gov is the U.S. government's official web portal to all federal, state and local government web resources and services.